Content
SEND FEEDBACK

Daily
Averages
Monthly
Summary
United States of America

WAHWEAP, ARIZONA


Home > North America > United States > Arizona
Elevation: 3703 feet     Latitude: 36 59N     Longitude: 111 29W

WEATHER
 
SELECT A DAY
Number of Records: 194,630;   Date Range: 1/1/95 - 7/22/14
 
SHARE

PRINT THIS DATA

[ ← Previous Day ]
WEATHER ALMANAC - OCTOBER 18, 2013
[ Next Day → ]
[ °C ]   °F
Weather ElementAverageHighLow
Temperature55.6 °F66.9 °F (3:53 pm)45 °F (6:53 am)
Dewpoint21 °F24.1 °F (6:53 pm)18 °F (1:53 pm)
Humidity27.2 %40 % (6:53 am)16 % (1:53 pm)
Barometer30.06 in30.10 in (9:53 am)29.97 in (1:53 am)
Wind Speed2.5 mph8.1 mph (3:53 pm)
Weather ElementAverage
Visibility9.9 mi
Wind DirectionE (95.2 °)

Weather ElementTotal
Precipitation---
Heating Degree Days9.1 (Base 65)
Growing Degree Days6 (Base 50)
Averaged from 23 records on October 18, 2013
WEATHER CONDITIONS BREAKOUT
WIND DIRECTION BREAKOUT
WEATHER BY HOUR - OCTOBER 18, 2013
[ °C ]   °F
Local TimeTemperatureDewpointHumidityBarometerVisibilityWind DirectionWind SpeedGust SpeedPrecipitationEventsConditions
1:53 AM53.1 °F19.0 °F26 %29.97 in10.0 miNW (320°)5.8 mphClear
2:53 AM48.9 °F21.0 °F33 %29.97 in10.0 miWSW (250°)3.5 mphClear
3:53 AM46.9 °F21.0 °F36 %29.99 in10.0 miCalmClear
4:53 AM46.0 °F21.9 °F39 %30.01 in10.0 miCalmClear
5:53 AM46.9 °F21.0 °F36 %30.04 in10.0 miSSE (160°)3.5 mphClear
6:53 AM45.0 °F21.9 °F40 %30.07 in10.0 miCalmClear
7:53 AM53.1 °F23.0 °F31 %30.08 in10.0 miCalmClear
8:53 AM55.9 °F23.0 °F28 %30.09 in10.0 miNW (320°)3.5 mphClear
9:53 AM59.0 °F21.9 °F24 %30.10 in10.0 miNorth (350°)3.5 mphClear
10:53 AM60.1 °F19.9 °F21 %30.10 in10.0 miCalmClear
11:53 AM64.0 °F19.9 °F18 %30.07 in10.0 miVariable3.5 mphClear
12:53 PM64.9 °F19.0 °F17 %30.05 in10.0 miNorth (350°)6.9 mphClear
1:53 PM66.0 °F18.0 °F16 %30.04 in10.0 miENE (70°)4.6 mphClear
2:53 PM66.0 °F19.0 °F17 %30.04 in10.0 miNE (50°)4.6 mphClear
3:53 PM66.9 °F19.0 °F16 %30.03 in10.0 miENE (60°)8.1 mphClear
4:53 PM64.9 °F19.9 °F18 %30.04 in10.0 miENE (70°)5.8 mphClear
5:53 PM61.0 °F21.0 °F21 %30.05 in10.0 miCalmClear
6:53 PM55.9 °F24.1 °F29 %30.08 in10.0 miCalmClear
7:53 PM54.0 °F19.9 °F26 %30.08 in10.0 miSouth (190°)3.5 mphClear
8:53 PM52.0 °F23.0 °F32 %30.09 in10.0 miCalmClear
9:53 PM51.1 °F23.0 °F33 %30.10 in10.0 miCalmClear
10:53 PM48.9 °F21.0 °F33 %30.10 in10.0 miCalmClear
11:53 PM48.9 °F23.0 °F36 %30.09 in8.0 miCalmClear
Hourly data recorded from KPGA, located miles away from Wahweap, Arizona







STORIES FROM OUR PARTNERS